Regional Weather Roundup
Issued by NWS

Home | Current Version | Previous Version | Graphics & Text | Print | Product List | Glossary On
Versions: 1 2 3 4 5 6 7 8 9 10 11 12 13 14 15 16 17 18 19 20 21 22 23 24 25 26 27 28 29 30 31 32 33 34 35 36 37 38 39 40 41 42 43 44 45 46 47 48 49 50
000
ASUS43 KDTX 291210
RWRMI
MICHIGAN HOURLY REGIONAL WEATHER ROUNDUP
NATIONAL WEATHER SERVICE DETROIT/PONTIAC MI
800 AM EDT TUE JUL 29 2014

NOTE: "FAIR" INDICATES FEW OR NO CLOUDS BELOW 12,000 FEET WITH NO
SIGNIFICANT WEATHER AND/OR OBSTRUCTION TO VISIBILITY.

MIZ047>049-052>055-059>063-066>070-074>076-081>083-291300-
SOUTHEAST LOWER MICHIGAN

CITY           SKY/WX    TMP DP  RH WIND       PRES   REMARKS
ADRIAN         SUNNY     50  48  93 W3        30.03R
6HR MIN TEMP:  46; 6HR MAX TEMP:  50;

ALMA           DRIZZLE   53  50  90 W5        29.99S
6HR MIN TEMP:  47; 6HR MAX TEMP:  53;

ANN ARBOR      SUNNY     52  49  89 W3        30.01R
BAD AXE        CLOUDY    53  52  97 SW3       29.97R
6HR MIN TEMP:  45; 6HR MAX TEMP:  53;

DETROIT CITY   SUNNY     58  48  69 W5        30.00R
6HR MIN TEMP:  56; 6HR MAX TEMP:  58;

DETROIT        MOSUNNY   55  49  80 W5        30.01R
6HR MIN TEMP:  51; 6HR MAX TEMP:  55;

FLINT          SUNNY     54  49  83 W5        30.00S
6HR MIN TEMP:  49; 6HR MAX TEMP:  54;

GROSSE ILE     SUNNY     55  50  82 W6        30.00R
HILLSDALE      SUNNY     53  53  99 CALM      30.03R
6HR MIN TEMP:  46; 6HR MAX TEMP:  53;

HOWELL         SUNNY     50  49  95 SW3       30.01R

CITY           SKY/WX    TMP DP  RH WIND       PRES   REMARKS
JACKSON        MOSUNNY   51  49  92 W3        30.02R
6HR MIN TEMP:  48; 6HR MAX TEMP:  51;

LAMBERTVILLE   SUNNY     54  48  82 W3        30.02S
LANSING        PTSUNNY   53  49  86 W6        30.01S
6HR MIN TEMP:  49; 6HR MAX TEMP:  53;

LAPEER         NOT AVBL
MASON          CLOUDY    52  49  90 CALM      30.01S
MONROE         SUNNY     54  50  87 W3        30.00S
MT. CLEMENS    SUNNY     56  48  73 W7        29.98R
6HR MIN TEMP:  54; 6HR MAX TEMP:  57;

PONTIAC        MOSUNNY   54  48  80 W6        30.00R
6HR MIN TEMP:  51; 6HR MAX TEMP:  55;

PORT HOPE        N/A     57  52  83 SW6       29.93S
6HR MIN TEMP:  51; 6HR MAX TEMP:  57;

PORT HURON     SUNNY     54  50  87 CALM      29.99R
TRI CITIES     PTSUNNY   54  50  86 SW7       29.99R
6HR MIN TEMP:  50; 6HR MAX TEMP:  54;

YPSILANTI      SUNNY     58  49  72 W6        30.01R
6HR MIN TEMP:  51; 6HR MAX TEMP:  58;

$$
MIZ043>046-050>051-056>058-064>065-071>073-077>080-291300-
SOUTHWEST LOWER MICHIGAN

CITY           SKY/WX    TMP DP  RH WIND       PRES   REMARKS
BATTLE CREEK   CLOUDY    54  50  86 SW3       30.03R
6HR MIN TEMP:  51; 6HR MAX TEMP:  54;

BENTON HARBOR  PTSUNNY   52  51  97 CALM      30.03R
6HR MIN TEMP:  45; 6HR MAX TEMP:  52;

BIG RAPIDS     PTSUNNY   54  54 100 CALM      29.98S
6HR MIN TEMP:  47; 6HR MAX TEMP:  54; 6HR PCP:  0.01;

COLDWATER      SUNNY     52  51  96 SW3       30.04R
6HR MIN TEMP:  48; 6HR MAX TEMP:  52;

HOLLAND        CLOUDY    58  55  90 S3        30.01S
6HR MIN TEMP:  50; 6HR MAX TEMP:  58; 6HR PCP: TRACE;

GRAND RAPIDS   CLOUDY    57  52  83 SW5       30.01S
6HR MIN TEMP:  52; 6HR MAX TEMP:  57;

KALAMAZOO      CLOUDY    53  49  86 CALM      30.03R
6HR MIN TEMP:  47; 6HR MAX TEMP:  53;

MARSHALL       CLOUDY    51  50  95 W3        30.03R
MUSKEGON       PTSUNNY   58  53  84 SW7       30.00S
6HR MIN TEMP:  50; 6HR MAX TEMP:  58; 6HR PCP: TRACE;

$$
MIZ016>042-291300-
NORTHERN LOWER MICHIGAN

CITY           SKY/WX    TMP DP  RH WIND       PRES   REMARKS
ALPENA         CLOUDY    57  53  86 W6        29.92R
6HR MIN TEMP:  52; 6HR MAX TEMP:  57; 6HR PCP:  0.01;

BEAVER ISLAND  CLOUDY    56  55  97 NW8       29.95S
6HR MIN TEMP:  56; 6HR MAX TEMP:  59;

BELLAIRE       CLOUDY    57  53  88 CALM      29.95S
6HR MIN TEMP:  51; 6HR MAX TEMP:  57;

CADILLAC       CLOUDY    53  51  95 SW3       29.97S
CHARLEVOIX     CLOUDY    59  57  92 NW6       29.97S
6HR MIN TEMP:  59; 6HR MAX TEMP:  61;

FRANKFORT      PTSUNNY   55  52  89 CALM      29.98R
GAYLORD        CLOUDY    53  50  89 SW5       29.95R
6HR MIN TEMP:  50; 6HR MAX TEMP:  53;

GRAYLING       PTSUNNY   54  53  95 W7        29.96S
6HR MIN TEMP:  49; 6HR MAX TEMP:  54;

HARBOR SPRINGS CLOUDY    60  55  85 W5        29.93S
HOUGHTON LAKE  CLOUDY    56  51  84 W9        29.96S
6HR MIN TEMP:  45; 6HR MAX TEMP:  56;

MANISTEE       CLOUDY    50  48  93 CALM      29.99S
OSCODA         CLOUDY    56  50  82 SW7       29.93S
PELLSTON       CLOUDY    59  56  89 W7        29.93S
6HR MIN TEMP:  55; 6HR MAX TEMP:  59;

TRAVERSE CITY  CLOUDY    58  52  80 SW5       29.95S
6HR MIN TEMP:  56; 6HR MAX TEMP:  58;

$$
MIZ007>008-015-291300-
EASTERN UPPER MICHIGAN

CITY           SKY/WX    TMP DP  RH WIND       PRES   REMARKS
KINROSS        CLOUDY    52  52 100 NW6       29.92S
6HR MIN TEMP:  52; 6HR MAX TEMP:  54;

MACKINAC ISLAN CLOUDY    56  55  99 NW8       29.92S
6HR MIN TEMP:  54; 6HR MAX TEMP:  60; 6HR PCP:  0.01;

NEWBERRY       CLOUDY    54  53  96 NW6       29.94R
6HR MIN TEMP:  52; 6HR MAX TEMP:  54;

S. S. MARIE    CLOUDY    51  49  92 NW6       29.92R
6HR MIN TEMP:  51; 6HR MAX TEMP:  55;

$$
MIZ004>006-011>014-085-291300-
CENTRAL UPPER MICHIGAN

CITY           SKY/WX    TMP DP  RH WIND       PRES   REMARKS
MANISTIQUE     MOSUNNY   55  54  95 NW7       29.95S
ESCANABA       CLOUDY    57  50  77 NW3       29.97S
6HR MIN TEMP:  55; 6HR MAX TEMP:  57;

MENOMINEE      MOSUNNY   57  52  82 NW7       29.98S
6HR MIN TEMP:  55; 6HR MAX TEMP:  61;

SAWYER-GWINN   PTSUNNY   55  52  88 NW6       29.98R
$$
MIZ001>003-009>011-084-291300-
WESTERN UPPER MICHIGAN

CITY           SKY/WX    TMP DP  RH WIND       PRES   REMARKS
IRON MOUNTAIN  MOSUNNY   56  51  84 W6        29.99S
6HR MIN TEMP:  53; 6HR MAX TEMP:  59;

COPPER HARBOR    N/A     58  53  84 N9        29.97R
6HR MIN TEMP:  58; 6HR MAX TEMP:  60;

IRONWOOD       CLOUDY    55  55 100 W8        30.04
$$

ABBREVIATIONS USED IN REMARKS
   TC - TEMPERATURE IN CELSIUS
  WCI - WIND CHILL INDEX
   HX - HEAT INDEX
  VSB - VISIBILITY




USA.gov is the U.S. government's official web portal to all federal, state and local government web resources and services.